DW0433 Weather Reports


Display with metric or nautical units.
time (UTC)temp
F
wind
direction
speed
MPH
gust
MPH
rain 1hr
in
rain 24hr
in
rain mn
in
humidity
%
barometer
mb
20200709041357 75 240 0.0 0.0 0.00 0.00 0.00 89 1013.9
20200709040358 75 240 0.0 0.0 0.00 0.00 0.00 89 1013.9
20200709035400 75 240 0.0 1.0 0.00 0.00 0.00 89 1013.9
20200709034357 75 240 0.0 1.0 0.00 0.00 0.00 89 1013.8
20200709033357 76 240 0.0 0.0 0.00 0.00 0.00 89 1013.9
20200709032400 76 240 0.0 0.0 0.00 0.00 0.00 88 1014.1
20200709031357 76 240 0.0 0.0 0.00 0.00 0.00 88 1014.1
20200709030357 76 240 0.0 2.0 0.00 0.00 0.00 88 1014.1
20200709025357 77 240 2.0 2.0 0.00 0.00 0.00 88 1014.1
20200709024357 77 240 3.0 3.0 0.00 0.00 0.00 88 1014.0
20200709023403 77 240 0.0 0.0 0.00 0.00 0.00 87 1013.9
20200709022357 77 240 0.0 0.0 0.00 0.00 0.00 86 1013.9
20200709021357 78 240 0.0 0.0 0.00 0.00 0.00 86 1013.4
20200709020357 78 240 0.0 0.0 0.00 0.00 0.00 85 1013.5
20200709015357 78 240 0.0 0.0 0.00 0.00 0.00 85 1013.1
20200709014357 79 240 0.0 0.0 0.00 0.00 0.00 83 1012.7
20200709013357 80 240 0.0 0.0 0.00 0.00 0.00 82 1012.9
20200709012357 80 240 0.0 0.0 0.00 0.00 0.00 81 1012.9
20200709011357 80 240 0.0 0.0 0.00 0.00 0.00 80 1012.9
20200709010358 81 240 0.0 0.0 0.00 0.00 0.00 80 1012.9
20200709005358 81 240 0.0 0.0 0.00 0.00 0.00 80 1012.8
20200709004357 81 240 0.0 0.0 0.00 0.01 0.00 79 1012.9
20200709003357 81 240 0.0 0.0 0.00 0.01 0.00 79 1012.8
20200709002400 82 240 0.0 0.0 0.00 0.02 0.00 78 1012.9
20200709001357 82 240 0.0 3.0 0.00 0.02 0.00 78 1012.7
20200709000400 82 240 0.0 0.0 0.00 0.02 0.00 77 1012.7
20200708235357 82 240 0.0 0.0 0.00 0.02 0.00 78 1012.4
20200708234400 81 240 0.0 0.0 0.00 0.02 0.00 78 1012.3
20200708233357 81 240 0.0 0.0 0.00 0.02 0.00 77 1012.0
20200708232400 81 240 0.0 0.0 0.00 0.02 0.00 78 1012.4
20200708231357 81 240 0.0 1.0 0.00 0.02 0.00 78 1012.4
20200708230357 81 240 0.0 4.0 0.00 0.02 0.00 77 1012.6
20200708225400 81 240 0.0 3.0 0.00 0.02 0.00 76 1012.8
20200708224400 81 240 0.0 4.0 0.00 0.02 0.00 76 1013.0
20200708223357 81 236 1.0 3.0 0.00 0.02 0.00 76 1012.8
20200708222400 82 236 0.0 0.0 0.00 0.02 0.00 75 1013.1
20200708221357 82 236 0.0 5.0 0.00 0.02 0.00 74 1013.3
20200708220357 83 240 1.0 6.0 0.00 0.02 0.00 72 1013.5
20200708215357 85 249 0.0 6.0 0.00 0.02 0.00 69 1013.6
20200708214357 87 302 0.0 4.0 0.00 0.02 0.00 65 1013.6
20200708213358 89 304 2.0 4.0 0.00 0.02 0.00 64 1013.4
20200708212403 90 67 0.0 4.0 0.00 0.02 0.00 58 1012.9
20200708211357 90 52 0.0 3.0 0.00 0.02 0.00 57 1012.7
20200708210357 91 51 1.0 3.0 0.00 0.02 0.00 56 1013.0
20200708205357 91 51 0.0 3.0 0.00 0.02 0.00 56 1012.9
20200708204357 91 51 2.0 3.0 0.00 0.02 0.00 57 1012.8
20200708203357 91 39 0.0 2.0 0.00 0.02 0.00 58 1012.8
20200708202400 91 39 0.0 1.0 0.00 0.02 0.00 60 1013.0
20200708201403 91 40 0.0 2.0 0.00 0.02 0.00 59 1013.2
20200708200357 92 40 0.0 4.0 0.00 0.02 0.00 55 1013.2
20200708195357 93 42 1.0 1.0 0.00 0.02 0.00 53 1013.1
20200708194400 94 42 0.0 2.0 0.00 0.02 0.00 51 1013.3
20200708193357 94 42 0.0 3.0 0.00 0.02 0.00 51 1013.3
20200708192400 94 331 0.0 1.0 0.00 0.02 0.00 52 1013.4
20200708191357 94 331 0.0 5.0 0.00 0.02 0.00 52 1013.5
20200708190357 93 336 0.0 4.0 0.00 0.02 0.00 54 1013.6
20200708185357 94 342 0.0 2.0 0.00 0.02 0.00 53 1013.6
20200708184357 94 342 0.0 5.0 0.00 0.02 0.00 53 1013.8
20200708183357 94 348 0.0 4.0 0.00 0.02 0.00 53 1014.0
20200708182357 95 32 0.0 4.0 0.00 0.02 0.00 51 1014.0
20200708181357 96 28 0.0 3.0 0.00 0.02 0.00 48 1014.0
20200708180403 96 256 0.0 5.0 0.00 0.02 0.00 48 1014.1
20200708175359 97 291 0.0 1.0 0.00 0.02 0.00 43 1014.2
20200708174357 97 291 0.0 2.0 0.00 0.02 0.00 45 1014.3
20200708173357 95 291 0.0 6.0 0.00 0.02 0.00 48 1014.4
20200708172357 94 284 0.0 5.0 0.00 0.02 0.00 49 1014.3
20200708171357 94 215 0.0 3.0 0.00 0.02 0.00 46 1014.5
20200708170400 94 211 0.0 1.0 0.00 0.02 0.00 50 1014.6
20200708165403 93 211 1.0 5.0 0.00 0.02 0.00 47 1014.5
20200708164357 93 207 1.0 4.0 0.00 0.02 0.00 46 1014.4
20200708163357 92 211 0.0 2.0 0.00 0.02 0.00 50 1014.4
20200708162358 92 209 0.0 4.0 0.00 0.02 0.00 54 1014.5
20200708161357 91 207 0.0 5.0 0.00 0.02 0.00 54 1014.5
20200708160357 91 230 1.0 3.0 0.00 0.02 0.00 57 1014.5
20200708155357 91 228 0.0 3.0 0.00 0.02 0.00 56 1014.5
20200708154357 91 228 0.0 5.0 0.00 0.02 0.00 56 1014.4
20200708153357 91 254 0.0 3.0 0.00 0.02 0.00 59 1014.4
20200708152357 91 291 0.0 2.0 0.00 0.02 0.00 58 1014.4
20200708151403 90 292 0.0 1.0 0.00 0.02 0.00 61 1014.0
20200708150357 90 292 0.0 3.0 0.00 0.02 0.00 61 1014.4
20200708145357 90 292 0.0 1.0 0.00 0.02 0.00 60 1014.4
20200708144405 89 289 0.0 0.0 0.00 0.02 0.00 62 1014.3
20200708143357 89 289 0.0 0.0 0.00 0.02 0.00 64 1014.3
20200708142400 88 289 0.0 1.0 0.00 0.02 0.00 66 1014.2
20200708141357 87 286 0.0 2.0 0.00 0.02 0.00 68 1014.3
20200708140357 86 281 0.0 0.0 0.00 0.02 0.00 68 1014.2
20200708135400 86 281 0.0 0.0 0.00 0.02 0.00 71 1014.3
20200708134357 85 281 0.0 0.0 0.00 0.02 0.00 72 1014.3
20200708133400 85 281 0.0 0.0 0.00 0.02 0.00 73 1014.4
20200708132400 84 281 0.0 0.0 0.00 0.02 0.00 73 1014.4
20200708131357 84 281 0.0 0.0 0.00 0.02 0.00 74 1014.4
20200708130357 82 281 0.0 0.0 0.00 0.02 0.00 78 1014.4
20200708125357 81 281 0.0 0.0 0.00 0.02 0.00 80 1014.5
20200708124357 80 281 0.0 0.0 0.00 0.02 0.00 82 1014.4
20200708123357 79 281 0.0 0.0 0.00 0.02 0.00 84 1014.4
20200708122358 77 281 0.0 0.0 0.00 0.02 0.00 87 1014.6
20200708121358 75 281 0.0 0.0 0.00 0.02 0.00 91 1014.4
20200708120357 73 281 0.0 0.0 0.00 0.02 0.00 94 1014.4
20200708115400 72 281 0.0 0.0 0.00 0.02 0.00 95 1014.4
20200708114400 71 281 0.0 0.0 0.00 0.02 0.00 95 1014.4
20200708113357 70 281 0.0 0.0 0.00 0.02 0.00 95 1014.2
20200708112357 69 281 0.0 0.0 0.00 0.02 0.00 95 1014.0
20200708111359 69 281 0.0 0.0 0.00 0.02 0.00 95 1014.0
20200708110325 68 205 0.0 0.0 0.00 0.02 0.00 95 1013.9
20200708105325 68 205 0.0 0.0 0.00 0.02 0.00 94 1013.9
20200708104325 68 205 0.0 0.0 0.00 0.02 0.00 94 1013.9
20200708103325 68 205 0.0 0.0 0.00 0.02 0.00 94 1013.8
20200708102328 68 205 0.0 0.0 0.00 0.02 0.00 94 1013.8
20200708101325 68 205 0.0 0.0 0.00 0.02 0.00 93 1013.8
20200708100327 68 205 0.0 0.0 0.00 0.02 0.00 94 1013.5
20200708095328 68 205 0.0 0.0 0.00 0.02 0.00 93 1013.4
20200708094328 68 205 0.0 0.0 0.00 0.02 0.00 93 1013.3
20200708093325 69 205 0.0 0.0 0.00 0.02 0.00 93 1013.4
20200708092328 69 205 0.0 0.0 0.00 0.02 0.00 93 1013.5
20200708091328 69 205 0.0 0.0 0.00 0.02 0.00 93 1013.5
20200708090325 69 205 0.0 0.0 0.00 0.02 0.00 92 1013.8
20200708085328 69 205 0.0 0.0 0.00 0.02 0.00 92 1013.8
20200708084328 69 205 0.0 0.0 0.00 0.02 0.00 92 1013.8
20200708083328 70 205 0.0 0.0 0.00 0.02 0.00 92 1013.8
20200708082331 70 205 0.0 0.0 0.00 0.02 0.00 92 1013.7
20200708081328 70 205 0.0 0.0 0.00 0.02 0.00 91 1013.7
20200708080325 70 205 0.0 0.0 0.00 0.02 0.00 91 1013.5
20200708075331 70 205 0.0 0.0 0.00 0.02 0.00 91 1013.6
20200708074329 71 205 0.0 0.0 0.00 0.02 0.00 90 1013.7
20200708073325 71 205 0.0 0.0 0.00 0.02 0.00 90 1013.8
20200708072328 71 205 0.0 0.0 0.00 0.02 0.00 90 1013.8
20200708071325 71 205 0.0 0.0 0.00 0.02 0.00 90 1013.9
20200708070326 72 205 0.0 0.0 0.00 0.02 0.00 89 1014.0
20200708065330 72 205 0.0 0.0 0.00 0.02 0.00 89 1014.1
20200708064325 72 205 0.0 0.0 0.00 0.02 0.00 88 1014.2
20200708063328 73 205 0.0 0.0 0.00 0.02 0.00 88 1014.2
20200708062325 73 205 0.0 0.0 0.00 0.02 0.00 87 1014.3
20200708061326 73 205 0.0 0.0 0.00 0.02 0.00 86 1014.4
20200708060325 74 205 0.0 0.0 0.00 0.02 0.00 86 1014.4
20200708055326 74 205 0.0 0.0 0.00 0.02 0.00 86 1014.4
20200708054325 74 205 0.0 3.0 0.00 0.02 0.00 85 1014.5
20200708053326 74 205 0.0 1.0 0.00 0.02 0.00 85 1014.5
20200708052327 75 205 0.0 5.0 0.00 0.02 0.00 85 1014.6
20200708051325 75 297 0.0 6.0 0.00 0.02 0.00 85 1014.7
20200708050326 74 221 0.0 5.0 0.00 0.02 0.00 86 1014.7
20200708045325 74 223 0.0 4.0 0.00 0.02 0.00 87 1014.8
20200708044325 73 223 0.0 5.0 0.00 0.02 0.00 89 1014.8
20200708043325 72 220 0.0 6.0 0.00 0.02 0.00 91 1014.9
20200708042325 71 291 3.0 2.0 0.00 0.02 0.00 93 1014.9